Location: Cassano d�Adda
(45.5333°N, 9.5167°E)
Time: 11:25:38
(UTC+00:00)

Nadezhda 4 Rocket - Pass Details

Date: 08 December 2019
Orbit: 949 x 993 km, 82.9° (Epoch: 20 January)

Event Time Altitude Azimuth Distance (km) Brightness Sun altitude
Rises 16:42:49 0° 175° (S) 3,693 7.3 -10.9°
Reaches altitude 10° 16:45:21 10° 172° (S) 2,750 6.5 -11.3°
Maximum altitude 16:51:35 63° 93° (E) 1,101 4.0 -12.3°
Drops below altitude 10° 16:57:49 10° 14° (NNE) 2,759 6.1 -13.3°
Sets 17:00:21 0° 12° (NNE) 3,707 6.7 -13.8°
